Cloud_Cover
100 100 100 100 50 1 4 0 0 0 0 0 0 0 0 0 0 0 0 0 0 0 0 0 0 0 0 0 0 0 0 0
100 100 100 22 0 5 1 2 0 0 0 0 0 0 0 0 0 0 0 0 0 0 0 0 0 0 0 0 0 0 0 0
100 100 78 5 5 2 5 0 0 5 1 0 0 0 0 0 0 0 0 0 0 0 0 0 0 0 0 0 0 3 2 0
100 92 100 81 5 4 5 5 5 5 5 5 0 0 0 0 0 0 0 0 0 0 0 0 0 0 0 1 2 0 1 0
52 100 100 100 67 26 89 54 5 5 5 5 4 3 1 0 0 0 4 0 0 0 0 0 0 0 0 0 0 0 0 0
6 100 100 100 100 100 100 44 5 21 18 5 5 0 0 0 0 0 0 0 0 0 0 0 0 0 0 0 0 0 0 0
11 100 100 100 100 100 100 72 55 39 6 5 4 5 1 2 0 0 0 1 0 0 0 0 0 0 0 0 0 0 0 0
46 68 100 100 100 100 100 100 100 92 7 4 5 5 5 0 3 5 4 5 1 0 0 0 0 0 0 0 0 0 0 0
89 85 100 100 100 100 100 100 100 100 50 5 10 11 5 5 23 5 5 4 5 1 0 0 0 0 0 0 0 0 0 1
46 99 100 100 100 100 100 100 100 100 100 62 61 38 30 5 5 8 5 5 0 0 0 0 0 0 0 0 0 0 1 0
99 81 100 100 100 100 100 100 100 100 100 97 89 80 24 71 78 37 5 5 0 0 0 0 0 0 0 0 0 0 0 5
89 78 100 100 100 100 100 100 100 100 97 100 98 86 12 15 12 5 6 5 5 0 5 5 0 0 0 0 2 2 6 94
100 99 76 94 100 100 100 100 100 100 100 100 52 14 20 5 5 92 9 7 5 5 5 3 0 0 0 0 1 29 100 100
100 97 100 100 100 100 100 100 100 100 100 90 100 18 58 24 93 93 27 13 5 5 5 4 2 1 4 10 94 100 93 43
100 82 100 100 100 100 100 100 100 100 87 100 95 59 60 99 100 20 5 5 5 5 5 5 5 5 14 100 100 70 96 100
100 100 100 100 100 100 58 98 100 95 100 98 100 100 100 100 24 6 5 5 24 8 5 18 5 15 100 100 90 85 52 100
100 100 96 69 98 100 100 100 100 100 100 100 100 100 100 100 58 8 6 47 25 7 5 5 5 56 91 13 78 45 94 26
100 100 100 100 100 100 100 100 100 100 100 100 100 100 100 93 99 100 98 97 42 40 5 5 5 45 5 15 8 29 12 75
100 100 100 100 100 100 100 100 100 100 100 100 100 100 100 100 100 100 100 73 80 58 93 20 6 5 7 9 100 50 97 98
82 100 100 100 99 90 75 100 85 100 100 100 100 100 100 100 100 100 100 72 95 77 46 45 5 5 86 100 100 100 66 58